Location: Boley
(53.1150°N, 8.2269°W)
Time: 23:21:26
(UTC+00:00)

RESURS DK-1 - Pass Details

Date: 15 May 2026
Orbit: 522 x 531 km, 69.9° (Epoch: 11 June)

Event Time Altitude Azimuth Distance (km) Brightness Sun altitude
Rises 23:49:07 0° 321° (NW) 2,683 6.9 -17.3°
Reaches altitude 10° 23:51:24 10° 314° (NW) 1,790 5.7 -17.4°
Maximum altitude 23:55:06 38° 246° (WSW) 824 3.0 -17.4°
Enters shadow 23:56:04 32° 212° (SSW) 921 3.0 -17.5°
